Orbital Elements at Epoch 2459200.5 (2020-Dec-17.0) TDB
Reference: JPL 11 (heliocentric ecliptic J2000)
Element | Value | Uncertainty (1-sigma) | Units |
e | .1874148375726206 | 4.1513e-08 | |
a | 2.439391918357686 | 1.83e-08 | au |
q | 1.982213678202717 | 1.0726e-07 | au |
i | 2.279026436393632 | 7.8971e-06 | deg |
node | 111.8110717127292 | 0.00014142 | deg |
peri | 288.4843711842751 | 0.0001438 | deg |
M | 177.6352636405622 | 2.7471e-05 | deg |
tp | 2458513.830935801223 (2019-Jan-30.33093580) | 0.00010206 | TDB |
period | 1391.620436422808 3.81 | 1.566e-05 4.287e-08 | d yr |
n | .2586912282816053 | 2.9111e-09 | deg/d |
Q | 2.896570158512655 | 2.173e-08 | au |
|
| | Orbit Determination Parameters
Additional Information
|